Location: Habighorst
(52.7089°N, 10.2278°E)
Time: 09:59:50
(UTC+00:00)

Cosmos 1758 - Pass Details

Date: 13 January 2026
Orbit: 479 x 500 km, 82.5° (Epoch: 18 February)

Event Time Altitude Azimuth Distance (km) Brightness Sun altitude
Rises 05:49:09 0° 194° (SSW) 2,584 6.8 -13.8°
Reaches altitude 10° 05:51:16 10° 197° (SSW) 1,702 5.8 -13.5°
Maximum altitude 05:54:59 72° 282° (WNW) 530 3.0 -13.0°
Drops below altitude 10° 05:58:43 10° 7° (N) 1,705 5.7 -12.4°
Sets 06:00:50 0° 10° (N) 2,589 6.7 -12.1°
